Wind_Speed
15 12 11 10 10 12 14 16 17 18 16 10 8 11 10 6 3 3 3 4 4 5 5 6 5 5 5 5 6 7 8 7 7 7 8 8 8 9 10 11 11 12
15 13 12 11 11 12 14 16 16 18 19 13 8 9 9 5 2 1 3 5 6 8 9 10 9 7 5 6 6 7 9 9 8 8 8 9 9 10 10 11 11 13
16 14 13 12 11 13 14 16 16 18 19 14 8 7 7 5 4 3 4 7 10 12 13 13 13 11 10 8 7 8 9 10 9 9 9 9 10 10 10 11 11 12
16 15 14 13 12 13 14 15 16 18 18 13 8 7 6 6 6 5 7 10 12 14 15 15 15 14 14 13 11 9 10 12 12 11 11 10 11 11 11 11 10 10
16 16 15 13 13 13 13 15 16 18 18 13 9 8 6 7 7 8 10 12 13 14 15 15 15 14 13 14 14 13 12 13 13 13 12 11 11 11 11 12 11 9
17 16 15 13 14 13 14 16 18 18 18 15 12 9 7 8 9 9 11 12 14 15 16 16 14 12 12 12 14 15 14 14 14 14 13 12 11 10 11 13 12 10
16 16 14 14 14 14 14 16 18 18 17 15 12 10 8 8 9 10 11 13 14 15 16 16 13 11 11 11 13 14 15 14 14 14 13 13 12 11 11 12 14 13
16 15 13 14 14 14 15 17 16 17 18 15 11 9 8 8 9 10 11 12 13 14 15 15 12 10 11 11 12 13 14 15 15 15 14 13 13 13 12 12 14 15
15 14 13 14 14 14 16 16 15 17 19 16 11 9 7 7 9 10 11 13 13 12 13 13 12 11 12 12 12 12 12 13 14 16 16 16 15 14 13 12 14 16
15 14 13 14 15 16 16 16 14 16 19 15 9 8 8 8 9 10 11 13 12 11 12 12 12 12 13 13 13 13 13 14 15 15 16 17 18 17 14 12 14 16
15 14 13 14 16 17 17 15 14 16 17 12 8 9 9 8 9 10 12 13 11 10 12 13 12 13 13 13 13 14 15 16 17 18 18 17 18 20 17 13 13 14
14 14 13 15 17 17 16 15 14 15 14 12 10 10 9 9 10 10 12 13 11 10 12 13 13 14 13 13 14 15 17 18 19 21 21 18 15 18 19 15 12 12
13 13 13 15 17 16 16 15 15 14 13 12 13 11 10 10 11 12 13 13 12 10 10 11 13 14 14 14 15 16 18 19 20 23 23 19 14 15 18 14 11 11
12 12 13 15 16 16 15 13 14 14 12 12 14 12 11 12 13 14 14 14 13 12 11 11 12 13 14 14 15 17 18 19 22 24 23 18 13 12 15 13 11 12
10 12 13 15 15 14 12 13 15 14 11 12 13 12 12 14 15 15 15 14 14 13 13 14 15 14 14 14 15 17 18 20 23 23 21 18 12 9 12 12 11 12
10 12 13 13 13 13 12 13 13 11 10 13 14 13 13 14 15 16 15 15 15 14 14 16 15 14 14 14 15 17 18 20 23 22 17 16 11 7 10 9 9 10
11 12 13 13 13 13 13 13 13 12 13 15 14 14 15 16 17 16 15 15 14 14 15 16 14 13 14 14 15 17 18 21 23 20 15 13 9 6 8 8 7 8
11 13 14 15 15 15 16 16 16 15 15 14 14 14 17 19 18 16 15 16 16 15 15 16 14 13 13 14 14 16 18 21 23 18 13 11 7 6 8 8 8 8
13 15 16 16 17 18 18 18 17 15 15 15 16 18 20 19 14 13 13 14 14 14 13 13 12 13 13 13 14 16 18 21 21 16 12 9 6 8 9 9 10 10
15 16 16 16 18 19 19 18 17 16 17 17 18 20 19 15 10 9 11 11 11 11 11 11 12 12 12 12 13 16 18 21 20 15 11 10 7 10 11 11 12 13
15 15 15 17 18 19 18 17 17 17 18 19 19 18 16 13 11 10 11 11 10 8 8 10 11 11 11 13 14 16 17 20 19 14 11 10 9 10 11 12 13 14
15 15 16 17 18 17 16 17 17 18 19 19 18 16 14 14 12 11 10 10 9 7 8 10 11 11 13 14 14 16 17 18 18 13 11 11 12 11 11 11 11 12
14 15 15 16 17 16 16 17 18 19 19 18 17 16 15 14 12 11 10 10 9 9 10 11 12 13 13 14 14 16 17 17 16 13 10 11 12 11 10 9 8 9
15 16 15 16 17 17 17 17 18 19 19 18 18 17 14 13 12 12 11 10 9 10 11 12 13 13 14 15 15 16 16 16 17 13 10 11 11 11 10 10 9 8
16 16 15 15 16 17 17 18 18 19 19 19 18 17 16 14 13 12 12 12 12 13 13 13 14 14 15 15 15 15 16 18 19 14 10 11 11 11 11 10 9 8
17 16 16 15 15 16 17 18 19 19 19 18 18 18 18 16 14 14 15 15 16 16 14 12 13 15 15 15 15 16 17 20 20 14 10 11 11 11 10 9 8 8
Wind_Direction
300 301 306 313 326 334 339 346 351 353 345 333 346 358 355 355 13 38 27 15 8 350 333 329 317 299 301 312 317 315 306 297 291 282 270 269 272 269 266 264 263 263
296 295 298 305 317 323 330 339 343 349 348 338 335 349 348 348 349 351 343 330 327 325 319 320 317 303 296 299 300 303 301 295 290 283 270 265 270 271 269 267 265 266
292 291 292 298 309 314 322 333 338 344 345 338 330 335 328 313 298 302 320 311 309 314 314 316 316 309 300 293 285 283 288 289 288 284 271 260 261 264 266 267 267 268
288 289 291 293 303 310 316 325 332 339 341 337 331 334 318 293 288 300 309 303 303 308 312 314 314 310 302 294 285 278 279 283 284 285 278 265 260 262 266 269 269 273
284 286 289 290 297 306 309 316 326 334 338 335 326 327 316 282 276 291 299 299 306 314 318 320 317 310 302 294 288 285 285 285 282 282 281 272 264 263 266 269 268 274
280 284 287 285 293 303 304 311 324 332 335 332 321 319 314 287 280 296 304 308 319 324 325 327 321 309 302 295 290 290 291 290 285 281 280 274 268 265 266 268 269 273
278 284 285 282 292 302 302 309 322 332 334 328 317 315 311 293 289 301 308 313 323 327 328 332 329 315 309 302 295 292 292 292 289 284 280 273 268 266 266 268 269 271
277 282 283 282 290 300 302 306 319 333 336 326 311 312 312 292 290 300 307 315 325 328 333 341 340 328 324 321 313 303 296 293 290 285 280 273 267 266 268 270 269 269
276 280 280 279 289 300 301 303 314 331 335 326 311 314 311 287 287 299 309 318 327 332 340 347 346 338 337 338 338 332 319 308 300 292 283 273 265 262 267 273 272 271
273 280 277 276 291 302 298 297 311 326 333 330 318 321 314 287 286 300 309 318 327 335 341 344 344 342 341 342 343 342 338 331 324 315 299 281 266 258 261 272 274 273
276 280 273 278 296 300 291 293 308 323 331 330 318 321 317 290 284 297 307 315 323 332 336 334 334 337 339 340 338 333 333 333 332 330 322 302 274 256 253 262 270 273
281 279 276 288 295 291 286 292 307 320 333 336 323 319 312 291 284 293 302 311 317 326 331 327 325 329 333 334 331 328 328 329 330 331 328 317 289 258 246 249 265 276
283 281 285 292 289 285 287 294 307 319 330 338 333 326 317 305 300 297 300 307 312 318 325 322 319 321 324 325 325 326 327 328 330 331 328 321 301 262 241 241 262 277
286 283 288 289 285 287 289 294 309 320 323 326 325 323 322 320 315 308 305 305 306 311 317 318 316 319 321 319 320 324 326 328 331 331 328 324 307 264 237 236 256 268
287 283 285 284 282 283 288 299 311 317 315 311 310 311 314 316 315 312 308 302 300 305 310 310 310 314 319 317 317 322 325 328 331 331 329 326 313 260 229 232 253 265
282 280 279 278 277 281 292 305 311 309 302 298 300 305 309 313 313 310 305 301 299 300 304 306 304 304 309 312 316 322 325 328 331 331 329 329 318 256 223 235 260 270
274 274 277 279 282 287 296 304 303 295 292 293 300 309 313 314 311 305 303 303 301 297 296 299 300 298 302 308 316 323 326 330 332 330 327 330 318 258 234 248 272 274
270 275 283 286 285 288 295 298 294 289 290 297 306 314 318 317 309 301 300 300 297 295 293 294 294 294 299 307 316 323 327 331 333 327 324 328 311 268 257 265 283 283
281 285 289 286 284 288 294 293 290 289 294 303 309 312 317 320 315 309 311 307 299 293 289 287 288 291 297 305 317 325 327 332 333 326 321 323 294 263 265 269 279 283
288 288 286 282 285 292 294 291 289 290 293 300 305 308 313 321 327 326 328 325 315 300 288 284 287 294 304 312 321 326 326 331 333 323 315 316 287 262 265 268 275 286
287 290 287 286 291 295 292 287 286 288 293 298 302 304 311 321 326 323 327 333 328 312 292 286 290 301 314 320 322 324 324 329 331 319 304 307 298 279 276 278 285 293
288 291 291 292 295 295 290 285 284 290 296 298 300 304 311 319 318 314 321 332 334 324 307 298 302 311 319 320 321 322 323 328 331 317 290 288 293 290 290 291 292 296
291 293 295 295 296 296 292 288 288 294 297 298 301 306 310 313 312 308 311 318 323 324 318 311 309 311 317 320 321 321 322 328 333 321 285 274 281 284 288 292 296 305
296 295 294 293 295 297 296 293 293 297 299 298 300 303 304 303 301 300 303 305 306 307 306 305 304 306 314 318 316 316 319 326 332 322 285 270 275 276 280 287 296 308
299 298 295 293 296 299 298 297 297 299 302 302 299 298 298 297 294 295 295 293 294 295 297 299 299 302 312 315 312 313 316 322 326 316 280 267 273 276 280 289 296 303
297 300 299 295 296 299 300 299 300 301 303 303 299 295 292 290 291 292 291 291 292 290 288 291 295 300 309 314 313 313 316 321 320 305 271 263 272 277 283 293 300 302
Height
1545 1545 1544 1543 1542 1541 1540 1539 1537 1536 1535 1534 1533 1532 1531 1531 1531 1531 1530 1529 1529 1528 1527 1527 1526 1525 1524 1522 1522 1521 1520 1519 1518 1518 1518 1517 1517 1516 1516 1516 1515 1515
1544 1543 1543 1542 1541 1540 1539 1538 1537 1535 1534 1533 1532 1532 1531 1531 1530 1530 1529 1528 1528 1527 1526 1526 1525 1524 1523 1522 1521 1520 1519 1518 1517 1517 1516 1515 1515 1515 1514 1514 1513 1513
1542 1542 1542 1541 1540 1540 1539 1538 1536 1535 1533 1533 1532 1531 1531 1530 1529 1528 1528 1527 1527 1526 1525 1525 1524 1523 1522 1520 1519 1519 1518 1517 1516 1515 1515 1514 1513 1513 1512 1512 1511 1511
1541 1541 1541 1541 1540 1539 1538 1537 1536 1534 1533 1532 1531 1531 1530 1529 1528 1527 1527 1527 1526 1525 1524 1523 1522 1521 1520 1519 1518 1517 1516 1516 1515 1514 1513 1513 1512 1511 1511 1510 1509 1509
1540 1540 1540 1540 1539 1538 1538 1537 1535 1534 1533 1532 1531 1530 1529 1528 1527 1526 1526 1526 1525 1524 1523 1522 1520 1519 1518 1517 1516 1515 1514 1514 1513 1513 1512 1511 1511 1510 1509 1508 1508 1508
1539 1539 1539 1538 1538 1537 1537 1536 1535 1534 1532 1531 1530 1529 1529 1528 1526 1526 1525 1525 1524 1523 1521 1520 1519 1517 1516 1515 1514 1513 1512 1512 1511 1510 1510 1509 1509 1508 1508 1507 1506 1506
1538 1538 1538 1537 1537 1536 1536 1535 1534 1533 1531 1530 1529 1528 1528 1527 1526 1525 1525 1524 1523 1522 1520 1519 1517 1516 1515 1514 1513 1511 1510 1509 1509 1508 1507 1507 1506 1506 1505 1505 1504 1504
1537 1537 1536 1536 1536 1535 1535 1534 1533 1532 1530 1529 1528 1527 1527 1526 1525 1525 1524 1524 1523 1521 1520 1518 1517 1515 1514 1513 1511 1510 1509 1508 1507 1506 1505 1504 1504 1503 1503 1502 1502 1502
1535 1535 1535 1535 1534 1534 1533 1533 1532 1531 1530 1528 1527 1527 1526 1525 1524 1524 1523 1523 1522 1521 1519 1518 1516 1515 1513 1512 1510 1509 1508 1507 1506 1505 1503 1503 1502 1501 1501 1501 1500 1500
1534 1534 1534 1533 1533 1532 1532 1531 1530 1530 1529 1528 1527 1526 1525 1524 1524 1523 1523 1522 1521 1520 1519 1517 1516 1515 1513 1512 1510 1508 1507 1506 1505 1503 1502 1501 1500 1499 1499 1499 1499 1498
1532 1532 1532 1532 1531 1531 1530 1530 1529 1528 1527 1527 1526 1525 1524 1523 1523 1522 1521 1521 1520 1519 1518 1517 1516 1514 1513 1511 1510 1508 1506 1505 1504 1502 1500 1499 1498 1497 1497 1497 1497 1497
1531 1531 1531 1530 1530 1529 1529 1528 1528 1527 1526 1525 1525 1524 1523 1522 1522 1521 1520 1520 1519 1518 1517 1516 1515 1513 1512 1510 1509 1507 1506 1504 1502 1500 1498 1496 1495 1494 1495 1496 1496 1496
1530 1530 1530 1529 1529 1528 1528 1527 1527 1526 1525 1524 1524 1523 1522 1522 1521 1520 1519 1518 1518 1517 1515 1514 1513 1512 1511 1509 1508 1506 1504 1503 1501 1499 1496 1494 1493 1492 1493 1494 1494 1494
1528 1529 1528 1528 1527 1527 1526 1526 1525 1524 1523 1523 1522 1522 1521 1520 1519 1519 1518 1517 1516 1515 1514 1513 1512 1511 1510 1508 1507 1505 1503 1502 1500 1497 1494 1492 1491 1490 1491 1492 1493 1492
1527 1527 1527 1526 1526 1525 1525 1524 1523 1523 1522 1521 1521 1520 1520 1519 1518 1517 1516 1515 1514 1513 1513 1512 1511 1510 1508 1507 1506 1504 1502 1500 1498 1496 1493 1491 1489 1489 1490 1491 1491 1491
1526 1526 1525 1525 1524 1524 1523 1523 1522 1521 1520 1520 1519 1519 1518 1517 1516 1515 1514 1513 1513 1512 1511 1510 1509 1508 1507 1506 1504 1503 1501 1499 1497 1495 1493 1490 1489 1488 1489 1490 1490 1490
1525 1524 1524 1523 1523 1522 1522 1521 1520 1519 1519 1518 1518 1517 1516 1515 1514 1513 1512 1512 1511 1510 1509 1508 1507 1507 1506 1505 1503 1502 1500 1498 1496 1494 1492 1490 1489 1488 1489 1489 1489 1488
1524 1523 1523 1522 1521 1521 1520 1519 1519 1518 1518 1517 1516 1515 1515 1514 1513 1511 1510 1510 1509 1508 1507 1507 1506 1505 1504 1503 1502 1501 1499 1497 1495 1493 1491 1490 1489 1488 1488 1488 1488 1487
1523 1522 1521 1521 1520 1519 1519 1518 1517 1517 1516 1516 1515 1514 1513 1512 1511 1510 1509 1508 1507 1506 1506 1505 1504 1504 1503 1502 1501 1499 1498 1496 1494 1492 1491 1490 1488 1488 1488 1488 1487 1487
1522 1521 1521 1520 1519 1518 1517 1516 1516 1515 1515 1514 1513 1513 1512 1510 1509 1508 1507 1506 1505 1504 1504 1503 1503 1502 1501 1500 1499 1498 1497 1495 1493 1492 1490 1489 1488 1488 1487 1487 1487 1486
1520 1520 1519 1519 1518 1517 1516 1515 1514 1514 1513 1513 1512 1511 1510 1509 1508 1507 1506 1505 1504 1503 1503 1502 1502 1501 1500 1499 1498 1497 1495 1494 1492 1491 1490 1489 1488 1487 1487 1486 1486 1486
1519 1519 1518 1517 1516 1515 1514 1514 1513 1512 1512 1511 1510 1509 1508 1507 1506 1505 1505 1504 1503 1502 1501 1501 1500 1499 1499 1498 1497 1496 1494 1493 1491 1490 1489 1488 1487 1487 1486 1485 1485 1485
1518 1517 1516 1515 1514 1513 1513 1512 1511 1511 1510 1509 1508 1507 1506 1505 1505 1504 1503 1502 1502 1501 1500 1500 1499 1498 1497 1496 1495 1494 1493 1492 1490 1489 1489 1488 1487 1486 1485 1485 1484 1484
1516 1515 1514 1514 1513 1512 1511 1510 1510 1509 1508 1507 1506 1505 1504 1504 1503 1502 1502 1501 1500 1500 1499 1498 1497 1497 1496 1495 1494 1493 1492 1490 1489 1488 1487 1487 1486 1485 1485 1484 1484 1483
1514 1513 1513 1512 1511 1510 1509 1508 1508 1507 1506 1505 1504 1503 1502 1502 1501 1500 1500 1499 1499 1498 1497 1497 1496 1495 1494 1493 1493 1492 1490 1489 1487 1486 1486 1485 1485 1484 1484 1483 1483 1482
1512 1512 1511 1510 1509 1509 1508 1507 1506 1505 1504 1503 1502 1501 1500 1500 1499 1499 1498 1497 1497 1496 1496 1495 1494 1493 1493 1492 1491 1490 1489 1487 1486 1484 1484 1484 1483 1483 1483 1482 1482 1481